Volver al catálogo

STARLINK-36390

ActivoComunicacionesSSO
NORAD 67886·PAYLOAD·🇺🇸 United States

Lanzado Feb 21, 2026 desde Vandenberg Space Force Base

Loading…

Próximos Pases (próximas 24 horas)

TLE

ActualizadoSource: CelesTrak SupGP

Época: Sep 14, 2026, 21:39 UTC

1 67886C 26035H   26257.90256944 -.00051766  00000+0 -16071-2 0  2572
2 67886  97.2844 189.7718 0001803  94.4071 181.6803 15.33461061    17

Sigue STARLINK-36390 en tiempo real con AllMySat

Download on the App Store